[[{"header":{"parameterUnit":"m.s-1","parameterCategory":1,"la1":30.2991,"la2":30.254,"lo1":-89.0895,"lo2":-89.0444,"dy":0.0017,"dx":0.0017,"nx":28,"ny":28,"refTime":"2025-05-22T09:00:00:Z","depth":0,"parameterNumber":2,"parameterNumberName":"U-component_of_WINDS"},"data":[0,0,0,0,0,0,0,0,0,0,0,0,0,0,0,0,0,0,0,0,0,0,0,0,0,0,0,0,0,0,0,0,0,0,0,0,0,0,0,0,0,0,0,0,0,0,0,0,0,0,0,0,0,0,0,0,0,0,-0.3843,-0.3842,0,-0.3792,-0.3792,-0.3791,-0.3748,-0.3748,-0.3747,-0.3747,-0.3695,-0.3694,-0.3694,0,0,0,0,0,0,0,0,0,0,0,0,0,-0.3903,-0.3903,-0.3843,-0.3842,-0.3842,-0.3792,-0.3792,-0.3791,-0.3748,-0.3748,-0.3747,-0.3747,-0.3696,-0.3695,-0.3693,0,0,0,0,0,0,0,0,0,0,0,0,0,-0.3867,-0.3902,-0.3843,-0.3814,-0.3811,-0.3793,-0.3792,-0.3791,-0.3748,-0.3748,-0.3747,-0.3746,-0.3696,-0.3695,-0.3693,-0.3699,0,0,-0.3689,-0.3688,0,0,0,0,0,0,0,0,-0.387,-0.3865,-0.3819,-0.3816,-0.3813,-0.3776,-0.3794,-0.376,-0.3749,-0.3772,-0.3747,-0.3746,-0.3723,-0.3719,-0.3711,-0.3697,-0.3694,-0.3689,-0.3688,-0.3687,-0.3687,0,0,0,0,0,0,0,-0.3872,-0.3867,-0.3823,-0.3819,-0.3815,-0.3804,-0.3798,-0.3787,-0.3752,-0.377,-0.3767,-0.3761,-0.3721,-0.3713,-0.371,-0.3694,-0.3689,-0.3688,-0.3687,-0.3686,-0.3681,-0.3682,0,0,0,0,0,0,-0.3879,-0.387,-0.3825,-0.3821,-0.384,-0.3804,-0.3797,-0.3788,-0.3752,-0.3746,-0.3762,-0.376,-0.3715,-0.3711,-0.3708,-0.3712,-0.3687,-0.3686,-0.3685,-0.3681,-0.3681,-0.3682,0,0,0,0,0,0,-0.388,-0.3875,-0.3827,-0.3845,-0.3838,-0.3804,-0.3794,-0.3788,-0.3779,-0.3746,-0.374,-0.376,-0.3715,-0.371,-0.3701,-0.371,-0.3686,-0.3684,-0.368,-0.3681,-0.3682,-0.3721,0,0,0,0,0,0,-0.3882,-0.3876,-0.3878,-0.3845,-0.3837,-0.3821,-0.3794,-0.3787,-0.3777,-0.3773,-0.3742,-0.3737,-0.3714,-0.3704,-0.37,-0.3707,-0.3683,-0.3679,-0.368,-0.3681,-0.3719,-0.3723,-0.3727,0,0,0,0,0,-0.3885,-0.3891,-0.3878,-0.3873,-0.3838,-0.3822,-0.3817,-0.379,-0.3778,-0.378,-0.3758,-0.3738,-0.3709,-0.3703,-0.3699,-0.3706,-0.3678,-0.368,-0.3681,-0.3717,-0.3722,-0.3727,0,0,0,0,0,0,-0.3926,-0.3886,-0.3871,-0.3867,-0.3848,-0.3815,-0.3816,-0.3797,-0.3781,-0.3778,-0.3746,-0.3739,-0.3735,-0.3719,-0.3713,-0.3709,-0.3691,-0.3692,-0.372,-0.3725,-0.3729,-0.3732,-0.3682,0,0,0,0,0,-0.3934,-0.3924,-0.389,-0.389,-0.3881,-0.385,-0.3842,-0.3823,-0.3802,-0.3794,-0.3772,-0.3752,-0.3739,-0.3731,-0.3717,-0.3716,-0.3709,-0.3719,-0.3723,-0.3727,-0.3728,-0.3727,-0.3731,-0.3687,-0.3687,-0.3687,0,0,-0.3952,-0.3929,-0.3924,-0.3897,-0.388,-0.3871,-0.3843,-0.3834,-0.3827,-0.3792,-0.3783,-0.3767,-0.3743,-0.3739,-0.3736,-0.3726,-0.3738,-0.3729,-0.3732,-0.3731,-0.3729,-0.3733,-0.3736,-0.3688,-0.3688,-0.3688,0,0,-0.3979,-0.3961,-0.3958,-0.3942,-0.3916,-0.3896,-0.3895,-0.3865,-0.3852,-0.3842,-0.3816,-0.3807,-0.3785,-0.3769,-0.3758,-0.378,-0.376,-0.3776,-0.3797,-0.3797,-0.38,-0.3803,-0.3811,-0.3814,-0.3777,-0.3777,-0.3777,0,-0.4004,-0.3989,-0.396,-0.3952,-0.3941,-0.3909,-0.3907,-0.3892,-0.3864,-0.3857,-0.3846,-0.3817,-0.3799,-0.3791,-0.3796,-0.3788,-0.3787,-0.3779,-0.3802,-0.3805,-0.3807,-0.3814,-0.3817,-0.3779,-0.3779,-0.3779,-0.3779,0,-0.4021,-0.401,-0.4012,-0.3985,-0.3974,-0.3969,-0.394,-0.3932,-0.3914,-0.3895,-0.3886,-0.3863,-0.3843,-0.384,-0.3822,-0.3829,-0.3824,-0.3808,-0.3789,-0.3814,-0.382,-0.3822,-0.3782,-0.3781,-0.3781,-0.378,0,0,-0.4073,-0.403,-0.4031,-0.4018,-0.3988,-0.3979,-0.3973,-0.3954,-0.3949,-0.393,-0.3924,-0.3906,-0.3891,-0.3879,-0.3859,-0.3859,-0.3878,-0.3843,-0.3842,-0.385,-0.3884,-0.3897,-0.39,-0.3865,-0.3865,-0.3865,-0.3886,0,-0.4095,-0.4082,-0.4056,-0.4051,-0.4041,-0.4011,-0.4005,-0.3986,-0.3968,-0.3958,-0.3937,-0.3925,-0.3906,-0.3899,-0.3897,-0.3876,-0.3884,-0.3874,-0.3859,-0.3859,-0.3866,-0.3903,-0.3916,-0.3937,-0.3888,-0.3889,-0.3889,0,-0.412,-0.4103,-0.4097,-0.4068,-0.4063,-0.4058,-0.4039,-0.4029,-0.4007,-0.3994,-0.398,-0.3958,-0.395,-0.3933,-0.3922,-0.3915,-0.3908,-0.3897,-0.3897,-0.3895,-0.3876,-0.3903,-0.3943,-0.3947,-0.3893,-0.3892,-0.3892,0,-0.4159,-0.4135,-0.4128,-0.4118,-0.4083,-0.4081,-0.4067,-0.4044,-0.4034,-0.4017,-0.4011,-0.3993,-0.3984,-0.3971,-0.3945,-0.3935,-0.3937,-0.3917,-0.3926,-0.3927,-0.3928,-0.3929,-0.3969,-0.3923,-0.3923,-0.3923,-0.3923,0,-0.4187,-0.4185,-0.4145,-0.4141,-0.4138,-0.4108,-0.4105,-0.4088,-0.4068,-0.406,-0.4033,-0.4026,-0.3993,-0.3982,-0.3962,-0.3956,-0.3952,-0.3941,-0.3936,-0.3944,-0.3945,-0.3939,-0.3937,-0.3924,-0.3924,-0.3923,-0.3923,0,-0.423,-0.4203,-0.4194,-0.4162,-0.4154,-0.4153,-0.4125,-0.412,-0.4101,-0.4091,-0.4087,-0.4056,-0.4043,-0.4016,-0.3995,-0.3981,-0.398,-0.397,-0.3987,-0.3984,-0.3995,-0.3994,-0.4032,-0.4036,-0.3988,-0.3988,-0.3989,0,-0.425,-0.4247,-0.4215,-0.4207,-0.4194,-0.4183,-0.4173,-0.4143,-0.4134,-0.4108,-0.4107,-0.4091,-0.4077,-0.4056,-0.4032,-0.4016,-0.4006,-0.402,-0.4003,-0.4012,-0.4007,-0.4007,-0.4007,-0.4025,-0.4025,-0.4026,-0.4026,0,-0.4288,-0.4275,-0.4261,-0.4243,-0.4232,-0.4216,-0.4199,-0.4195,-0.4162,-0.4153,-0.4138,-0.4127,-0.4106,-0.409,-0.4071,-0.4056,-0.4036,-0.4032,-0.4033,-0.4041,-0.4051,-0.4046,-0.3998,-0.4031,-0.403,-0.403,-0.403,-0.403,-0.432,-0.4317,-0.4293,-0.4279,-0.4263,-0.4248,-0.4242,-0.4221,-0.4208,-0.4189,-0.4172,-0.4159,-0.4137,-0.4108,-0.4095,-0.4084,-0.4075,-0.4076,-0.4077,-0.4078,-0.4081,-0.4053,-0.4081,-0.408,-0.408,-0.408,-0.408,0,-0.4357,-0.4341,-0.4328,-0.4305,-0.4294,-0.4275,-0.4256,-0.4248,-0.4237,-0.4218,-0.4204,-0.4188,-0.4173,-0.4148,-0.4131,-0.4127,-0.4118,-0.4124,-0.4124,-0.4121,-0.4091,-0.4092,-0.4132,-0.4132,-0.4132,-0.4132,-0.4132,-0.4132,-0.4375,-0.4368,-0.4353,-0.4338,-0.4321,-0.4308,-0.4298,-0.4284,-0.4269,-0.4252,-0.4239,-0.4223,-0.4201,-0.4182,-0.4168,-0.4161,-0.4156,-0.4165,-0.4156,-0.4128,-0.4123,-0.4118,-0.4119,-0.4165,-0.4165,-0.4187,-0.4187,-0.4187]},{"header":{"parameterUnit":"m.s-1","parameterCategory":1,"la1":30.2991,"la2":30.254,"lo1":-89.0895,"lo2":-89.0444,"dy":0.0017,"dx":0.0017,"nx":28,"ny":28,"refTime":"2025-05-22T09:00:00:Z","depth":0,"parameterNumber":3,"parameterNumberName":"V-component_of_WINDS"},"data":[0,0,0,0,0,0,0,0,0,0,0,0,0,0,0,0,0,0,0,0,0,0,0,0,0,0,0,0,0,0,0,0,0,0,0,0,0,0,0,0,0,0,0,0,0,0,0,0,0,0,0,0,0,0,0,0,0,0,2.6922,2.6923,0,2.6985,2.6985,2.6986,2.6976,2.6975,2.6974,2.6973,2.7033,2.7036,2.7038,0,0,0,0,0,0,0,0,0,0,0,0,0,2.6792,2.6794,2.6922,2.6923,2.6924,2.6984,2.6985,2.6986,2.6976,2.6975,2.6973,2.6972,2.7032,2.7035,2.7038,0,0,0,0,0,0,0,0,0,0,0,0,0,2.685,2.6795,2.6922,2.6926,2.6927,2.6984,2.6985,2.6986,2.6976,2.6975,2.6973,2.6971,2.7031,2.7035,2.7039,2.7095,0,0,2.7051,2.7052,0,0,0,0,0,0,0,0,2.6847,2.6855,2.6925,2.6926,2.6927,2.6971,2.6961,2.7023,2.6977,2.6957,2.6973,2.6971,2.7013,2.7019,2.7034,2.7098,2.71,2.7051,2.7053,2.7055,2.7056,0,0,0,0,0,0,0,2.6843,2.6852,2.6947,2.6926,2.6927,2.6924,2.693,2.6973,2.6993,2.6959,2.6958,2.6966,2.7014,2.703,2.7035,2.7101,2.7051,2.7054,2.7057,2.7058,2.7213,2.7215,0,0,0,0,0,0,2.6838,2.6849,2.6945,2.6949,2.6883,2.6927,2.6935,2.6958,2.6993,2.6997,2.6967,2.6965,2.7024,2.703,2.7037,2.7104,2.7055,2.7059,2.7061,2.7212,2.7214,2.7216,0,0,0,0,0,0,2.6836,2.6847,2.6942,2.6899,2.6911,2.6931,2.6958,2.696,2.6977,2.6999,2.7003,2.698,2.7023,2.7032,2.7081,2.7106,2.706,2.7064,2.7209,2.7212,2.7215,2.7239,0,0,0,0,0,0,2.6832,2.6846,2.6868,2.69,2.6913,2.6986,2.696,2.6963,2.6984,2.6982,2.7013,2.7016,2.7022,2.7075,2.7084,2.7111,2.7067,2.7207,2.7211,2.7214,2.7236,2.7243,2.7248,0,0,0,0,0,2.6827,2.6872,2.6869,2.6881,2.6942,2.6987,2.6995,2.7002,2.6986,2.7008,2.7023,2.7015,2.7102,2.708,2.7091,2.7119,2.7206,2.721,2.7214,2.7234,2.7241,2.7248,0,0,0,0,0,0,2.6842,2.6876,2.6874,2.693,2.6956,2.6986,2.7013,2.701,2.704,2.7037,2.7044,2.7051,2.7101,2.7115,2.7089,2.7174,2.7151,2.7158,2.7163,2.7171,2.7176,2.7171,2.707,0,0,0,0,0,2.6853,2.6888,2.6915,2.6963,2.6976,2.6993,2.7013,2.7016,2.7043,2.7053,2.7072,2.7097,2.713,2.7151,2.7183,2.7239,2.7245,2.7263,2.7269,2.7274,2.7278,2.7308,2.7316,2.7229,2.7229,2.7229,0,0,2.6873,2.6897,2.6918,2.6966,2.6987,2.7022,2.7002,2.704,2.7066,2.7059,2.7106,2.7121,2.7149,2.7202,2.7226,2.7215,2.7304,2.7279,2.7282,2.7285,2.7313,2.7321,2.7329,2.7231,2.7231,2.7231,0,0,2.6929,2.6951,2.6992,2.7014,2.7045,2.7056,2.7066,2.7096,2.7105,2.7153,2.7149,2.7179,2.7236,2.7256,2.7274,2.7338,2.7331,2.7348,2.7377,2.7406,2.7413,2.7419,2.7441,2.7448,2.7353,2.7353,2.7353,0,2.6951,2.7005,2.7014,2.7053,2.7074,2.707,2.7111,2.7131,2.7171,2.7185,2.7172,2.7244,2.7263,2.7319,2.7335,2.735,2.736,2.7344,2.7412,2.7418,2.7424,2.7444,2.7452,2.7355,2.7354,2.7354,2.7354,0,2.7029,2.7067,2.7097,2.7136,2.716,2.72,2.7214,2.7237,2.7239,2.7251,2.7299,2.7322,2.7358,2.7372,2.7373,2.7429,2.7421,2.741,2.7387,2.7433,2.7453,2.7461,2.7357,2.7356,2.7356,2.7356,0,0,2.7096,2.714,2.7151,2.7168,2.7203,2.7231,2.7271,2.7307,2.7326,2.7354,2.7386,2.7435,2.7425,2.7445,2.7449,2.7474,2.7522,2.7461,2.7461,2.747,2.7583,2.759,2.7599,2.7519,2.752,2.7522,2.758,0,2.7154,2.7225,2.7234,2.7296,2.733,2.7327,2.7361,2.7385,2.7398,2.7427,2.744,2.7474,2.746,2.7472,2.7497,2.7511,2.7545,2.7507,2.7547,2.7549,2.7539,2.7609,2.7616,2.767,2.7588,2.7589,2.759,0,2.7231,2.7262,2.7327,2.7357,2.7372,2.7402,2.7436,2.7465,2.7492,2.7499,2.7522,2.7522,2.7562,2.7538,2.7592,2.7566,2.7583,2.7593,2.7595,2.7598,2.7571,2.7612,2.7688,2.7695,2.7602,2.7601,2.76,0,2.7271,2.7329,2.7375,2.7391,2.7427,2.7448,2.7464,2.749,2.7511,2.754,2.7553,2.7586,2.7604,2.7629,2.7638,2.762,2.7691,2.7668,2.7696,2.7696,2.771,2.7709,2.7788,2.7724,2.7724,2.7723,2.7723,0,2.7334,2.7374,2.7394,2.7422,2.7467,2.7476,2.752,2.7534,2.7557,2.7588,2.7588,2.7616,2.7627,2.7657,2.7664,2.7707,2.7715,2.7721,2.7722,2.772,2.7719,2.773,2.7726,2.7726,2.7725,2.7725,2.7724,0,2.7386,2.7401,2.7451,2.7482,2.749,2.7521,2.7547,2.7574,2.7586,2.7624,2.7634,2.7652,2.7687,2.77,2.7742,2.7747,2.7796,2.7795,2.7787,2.7787,2.7814,2.781,2.7901,2.7913,2.7842,2.7843,2.7844,0,2.7425,2.7455,2.7489,2.751,2.7527,2.756,2.7582,2.7593,2.7615,2.7648,2.7671,2.7706,2.7735,2.7791,2.7807,2.7839,2.7838,2.7868,2.7842,2.7839,2.7837,2.7834,2.7837,2.7872,2.7872,2.7873,2.7874,0,2.7491,2.7497,2.7529,2.7563,2.7589,2.7616,2.7643,2.7659,2.7674,2.7699,2.7735,2.7757,2.7801,2.7835,2.7868,2.7883,2.788,2.7882,2.7889,2.7887,2.7881,2.7883,2.7798,2.7879,2.7878,2.7878,2.7878,2.7878,2.7537,2.7564,2.7592,2.7627,2.7648,2.7672,2.7699,2.7715,2.7746,2.7782,2.7787,2.7826,2.7851,2.7896,2.7912,2.7942,2.7933,2.7945,2.7948,2.795,2.7952,2.7877,2.7948,2.7948,2.7948,2.7948,2.7948,0,2.7602,2.762,2.7652,2.7689,2.7717,2.7713,2.7742,2.7765,2.7799,2.7824,2.7853,2.7894,2.7927,2.7947,2.798,2.8,2.7999,2.8008,2.8006,2.8009,2.7958,2.7947,2.8008,2.8008,2.8008,2.8008,2.8008,2.8008,2.7639,2.7684,2.7693,2.7748,2.7766,2.7805,2.7821,2.7844,2.7863,2.791,2.7938,2.7951,2.7973,2.8008,2.8038,2.8043,2.8054,2.8064,2.8068,2.8019,2.8013,2.8007,2.7997,2.8067,2.8067,2.8116,2.8116,2.8117]}]]